Tracking 29892 objects as of 21-Nov-2024
HD Live streaming from Space Station
objects crossing your sky now

STARLINK-4283

Track STARLINK-4283 now!
10-day predictions
STARLINK-4283 is classified as:


NORAD ID: 53016
Int'l Code: 2022-076AG
Perigee: 546.0 km
Apogee: 547.7 km
Inclination: 53.2 °
Period: 95.4 minutes
Semi major axis: 6917 km
RCS: Unknown
Launch date: July 7, 2022
Source: United States (US)
Launch site: AIR FORCE EASTERN TEST RANGE (AFETR)
Your satellite tracking list
Your tracking list is empty




NASA's NSSDC Master Catalog

Two Line Element Set (TLE):
1 53016U 22076AG  24324.55763111  .00000236  00000-0  32918-4 0  9994
2 53016  53.2169  57.0690 0001218  81.4678 278.6452 15.08839642131258
Source of the keplerian elements: AFSPC